�������l�o���
Date,Time,MP-1(��Sv/h),MP-2(��Sv/h),MP-3(��Sv/h),MP-4(��Sv/h),MP-5(��Sv/h),MP-6(��Sv/h),MP-7(��Sv/h),MP-8(��Sv/h),����,����(m/s),���J
2019/04/24,00:00,0.782,1.148,0.789,1.461,1.066,0.445,0.781,0.738,��쓌,6.2,��
2019/04/24,00:10,0.782,1.147,0.789,1.462,1.071,0.444,0.783,0.739,��,5.7,��
2019/04/24,00:20,0.782,1.148,0.790,1.463,1.067,0.445,0.782,0.738,��,6.6,��
2019/04/24,00:30,0.781,1.148,0.790,1.462,1.067,0.444,0.782,0.739,��,6.4,��
2019/04/24,00:40,0.781,1.148,0.790,1.463,1.067,0.445,0.783,0.739,��,7.3,��
2019/04/24,00:50,0.781,1.145,0.790,1.465,1.067,0.444,0.782,0.738,��,7.6,��
2019/04/24,01:00,0.780,1.146,0.789,1.460,1.070,0.446,0.785,0.739,��,6.6,��
2019/04/24,01:10,0.778,1.147,0.789,1.461,1.067,0.444,0.783,0.740,��,6.9,��
2019/04/24,01:20,0.781,1.145,0.789,1.459,1.069,0.445,0.784,0.739,��,6.2,��
2019/04/24,01:30,0.781,1.148,0.789,1.462,1.071,0.443,0.781,0.736,��,6.9,��
2019/04/24,01:40,0.783,1.145,0.790,1.462,1.068,0.446,0.782,0.740,��,6.4,��
2019/04/24,01:50,0.780,1.145,0.789,1.462,1.070,0.444,0.783,0.737,��,6.5,��
2019/04/24,02:00,0.782,1.145,0.791,1.463,1.071,0.444,0.783,0.737,��,7.8,��
2019/04/24,02:10,0.781,1.146,0.787,1.462,1.068,0.444,0.782,0.737,��,7.4,��
2019/04/24,02:20,0.782,1.147,0.789,1.461,1.070,0.443,0.784,0.738,��,7.6,��
2019/04/24,02:30,0.783,1.145,0.790,1.462,1.070,0.445,0.784,0.737,��,6.8,��
2019/04/24,02:40,0.780,1.147,0.788,1.462,1.070,0.445,0.782,0.740,��,8.1,��
2019/04/24,02:50,0.780,1.147,0.790,1.462,1.066,0.444,0.783,0.739,��,6.8,��
2019/04/24,03:00,0.782,1.146,0.788,1.461,1.072,0.445,0.783,0.738,��,6.9,��
2019/04/24,03:10,0.782,1.146,0.790,1.462,1.072,0.443,0.784,0.739,��,7.5,��
2019/04/24,03:20,0.781,1.144,0.790,1.461,1.068,0.443,0.782,0.738,��,7.0,��
2019/04/24,03:30,0.780,1.143,0.789,1.461,1.069,0.444,0.782,0.738,��,6.8,��
2019/04/24,03:40,0.778,1.146,0.789,1.458,1.069,0.444,0.782,0.740,��,7.2,��
2019/04/24,03:50,0.783,1.144,0.787,1.465,1.067,0.443,0.782,0.738,��,6.8,��
2019/04/24,04:00,0.781,1.145,0.789,1.460,1.069,0.443,0.782,0.738,��,7.2,��
2019/04/24,04:10,0.782,1.147,0.790,1.462,1.071,0.442,0.783,0.738,��,7.2,��
2019/04/24,04:20,0.781,1.144,0.788,1.460,1.067,0.442,0.783,0.738,��,7.3,��
2019/04/24,04:30,0.779,1.145,0.789,1.461,1.067,0.444,0.783,0.738,��,7.8,��
2019/04/24,04:40,0.781,1.145,0.788,1.461,1.070,0.443,0.784,0.739,��,7.4,��
2019/04/24,04:50,0.781,1.145,0.791,1.461,1.068,0.443,0.783,0.738,��,8.2,��
2019/04/24,05:00,0.781,1.145,0.787,1.460,1.068,0.444,0.781,0.739,��,8.0,��
2019/04/24,05:10,0.783,1.145,0.789,1.460,1.069,0.443,0.783,0.740,��,7.7,��
2019/04/24,05:20,0.781,1.145,0.788,1.461,1.068,0.442,0.783,0.737,��,7.7,��
2019/04/24,05:30,0.782,1.141,0.788,1.463,1.068,0.443,0.783,0.738,��,6.5,��
2019/04/24,05:40,0.782,1.142,0.787,1.461,1.068,0.443,0.784,0.738,��,6.3,��
2019/04/24,05:50,0.780,1.147,0.790,1.463,1.068,0.443,0.785,0.738,��,6.4,��
2019/04/24,06:00,0.783,1.145,0.788,1.459,1.069,0.442,0.782,0.739,��,5.4,��
2019/04/24,06:10,0.780,1.147,0.789,1.458,1.070,0.445,0.783,0.738,��,5.2,��
2019/04/24,06:20,0.781,1.143,0.789,1.462,1.069,0.443,0.783,0.740,��,6.2,��
2019/04/24,06:30,0.779,1.143,0.788,1.462,1.071,0.443,0.783,0.738,��,7.3,��
2019/04/24,06:40,0.781,1.146,0.791,1.464,1.068,0.444,0.783,0.740,��,8.0,��
2019/04/24,06:50,0.781,1.144,0.789,1.460,1.069,0.444,0.784,0.739,��,7.6,��
2019/04/24,07:00,0.781,1.144,0.789,1.459,1.070,0.444,0.782,0.738,��,6.6,��
2019/04/24,07:10,0.781,1.146,0.790,1.461,1.068,0.443,0.783,0.739,��,6.4,��
2019/04/24,07:20,0.782,1.145,0.792,1.458,1.067,0.444,0.781,0.738,��,6.0,��
2019/04/24,07:30,0.783,1.145,0.788,1.461,1.069,0.443,0.783,0.739,��,6.1,��
2019/04/24,07:40,0.784,1.145,0.791,1.460,1.069,0.445,0.782,0.740,��,5.4,��
2019/04/24,07:50,0.782,1.144,0.787,1.460,1.069,0.444,0.783,0.741,��,5.6,��
2019/04/24,08:00,0.781,1.145,0.788,1.460,1.066,0.443,0.782,0.740,��,5.0,��
2019/04/24,08:10,0.783,1.145,0.789,1.463,1.066,0.444,0.782,0.739,��쓌,4.1,��
2019/04/24,08:20,0.780,1.146,0.789,1.462,1.067,0.443,0.780,0.739,���쓌,2.8,��
2019/04/24,08:30,0.781,1.142,0.788,1.461,1.066,0.442,0.782,0.737,��쓌,2.3,��
2019/04/24,08:40,0.780,1.141,0.791,1.461,1.066,0.442,0.781,0.737,��,3.0,��
2019/04/24,08:50,0.781,1.142,0.790,1.459,1.064,0.442,0.781,0.738,��,5.9,��
2019/04/24,09:00,0.780,1.142,0.791,1.460,1.064,0.443,0.783,0.739,��,6.6,��
2019/04/24,09:10,0.779,1.137,0.787,1.462,1.068,0.442,0.782,0.736,��,7.1,��
2019/04/24,09:20,0.781,1.137,0.790,1.461,1.068,0.442,0.783,0.736,��,7.1,��
2019/04/24,09:30,0.779,1.139,0.789,1.460,1.069,0.442,0.781,0.736,��,7.3,��
2019/04/24,09:40,0.778,1.141,0.787,1.461,1.068,0.441,0.780,0.735,��,9.3,��
2019/04/24,09:50,0.781,1.140,0.788,1.459,1.068,0.442,0.784,0.736,��,6.1,��
2019/04/24,10:00,0.780,1.141,0.788,1.461,1.066,0.443,0.781,0.735,��쓌,8.9,��
2019/04/24,10:10,0.781,1.138,0.788,1.462,1.068,0.443,0.781,0.737,��,9.4,��
2019/04/24,10:20,0.779,1.138,0.786,1.461,1.066,0.441,0.780,0.736,��,9.4,��
2019/04/24,10:30,0.780,1.138,0.789,1.460,1.070,0.442,0.782,0.736,��쓌,8.1,��
2019/04/24,10:40,0.781,1.140,0.785,1.462,1.070,0.443,0.784,0.737,��쓌,10.3,��
2019/04/24,10:50,0.778,1.141,0.787,1.462,1.065,0.444,0.784,0.735,��,9.1,��
2019/04/24,11:00,0.780,1.139,0.787,1.463,1.066,0.443,0.782,0.737,��쓌,9.5,��
2019/04/24,11:10,0.779,1.141,0.788,1.462,1.069,0.444,0.784,0.737,��,9.7,��
2019/04/24,11:20,0.781,1.140,0.786,1.461,1.067,0.445,0.783,0.736,��,9.5,��
2019/04/24,11:30,0.778,1.141,0.787,1.462,1.068,0.444,0.782,0.736,��,12.0,��
2019/04/24,11:40,0.780,1.140,0.786,1.462,1.068,0.444,0.783,0.736,��쓌,13.5,��
2019/04/24,11:50,0.779,1.139,0.786,1.460,1.066,0.441,0.783,0.738,��쓌,14.9,��
2019/04/24,12:00,0.780,1.142,0.787,1.459,1.067,0.443,0.782,0.736,��,13.3,��
2019/04/24,12:10,0.779,1.144,0.787,1.461,1.068,0.444,0.782,0.736,��,11.8,��
2019/04/24,12:20,0.781,1.142,0.787,1.460,1.070,0.444,0.782,0.736,��,11.4,��
2019/04/24,12:30,0.780,1.140,0.788,1.462,1.068,0.443,0.780,0.736,��,11.9,��
2019/04/24,12:40,0.780,1.139,0.786,1.463,1.069,0.444,0.783,0.736,��,13.3,��
2019/04/24,12:50,0.779,1.139,0.788,1.462,1.068,0.443,0.781,0.737,��,11.0,��
2019/04/24,13:00,0.780,1.141,0.790,1.463,1.067,0.443,0.783,0.736,��,12.1,��
2019/04/24,13:10,0.780,1.140,0.789,1.459,1.066,0.443,0.782,0.737,��,11.7,��
2019/04/24,13:20,0.782,1.137,0.787,1.461,1.067,0.442,0.782,0.736,��,12.7,�L
2019/04/24,13:30,0.780,1.138,0.787,1.463,1.066,0.441,0.782,0.737,��,10.8,�L
2019/04/24,13:40,0.780,1.140,0.787,1.462,1.069,0.442,0.783,0.737,��,10.5,��
2019/04/24,13:50,0.780,1.139,0.787,1.465,1.068,0.442,0.783,0.736,��,10.0,��
2019/04/24,14:00,0.779,1.136,0.787,1.464,1.067,0.443,0.783,0.738,��,9.7,��
2019/04/24,14:10,0.780,1.138,0.789,1.464,1.069,0.442,0.783,0.738,��,10.5,�L
2019/04/24,14:20,0.780,1.142,0.790,1.466,1.066,0.444,0.782,0.737,��,10.5,�L
2019/04/24,14:30,0.782,1.137,0.787,1.463,1.065,0.444,0.781,0.737,��,8.4,�L
2019/04/24,14:40,0.778,1.139,0.788,1.463,1.065,0.443,0.782,0.738,��,10.6,�L
2019/04/24,14:50,0.782,1.137,0.789,1.462,1.066,0.442,0.783,0.736,��,10.3,��
2019/04/24,15:00,0.781,1.139,0.788,1.461,1.063,0.444,0.782,0.736,��,10.5,��
2019/04/24,15:10,0.782,1.141,0.791,1.461,1.066,0.442,0.782,0.737,��,10.7,��
2019/04/24,15:20,0.782,1.142,0.790,1.461,1.066,0.444,0.782,0.738,��,9.8,��
2019/04/24,15:30,0.782,1.143,0.789,1.462,1.064,0.446,0.782,0.738,��,10.2,��
2019/04/24,15:40,0.781,1.142,0.790,1.462,1.066,0.443,0.782,0.738,��,9.3,��
2019/04/24,15:50,0.781,1.140,0.790,1.462,1.065,0.444,0.782,0.738,��,10.5,��
2019/04/24,16:00,0.781,1.142,0.792,1.462,1.064,0.444,0.782,0.738,��,11.6,��
2019/04/24,16:10,0.782,1.142,0.791,1.465,1.064,0.445,0.782,0.739,��,10.9,�L
2019/04/24,16:20,0.780,1.142,0.789,1.463,1.064,0.444,0.782,0.739,��,11.3,��
2019/04/24,16:30,0.780,1.144,0.790,1.463,1.065,0.444,0.782,0.738,��,11.3,��
2019/04/24,16:40,0.782,1.141,0.791,1.460,1.064,0.444,0.784,0.736,��,12.4,��
2019/04/24,16:50,0.781,1.141,0.788,1.463,1.065,0.445,0.783,0.737,��,13.5,��
2019/04/24,17:00,0.781,1.140,0.789,1.462,1.065,0.445,0.783,0.737,��,11.9,��
2019/04/24,17:10,0.781,1.142,0.789,1.463,1.066,0.444,0.783,0.738,��,11.6,��
2019/04/24,17:20,0.780,1.142,0.791,1.462,1.064,0.442,0.783,0.738,��,11.6,��
2019/04/24,17:30,0.778,1.142,0.789,1.462,1.065,0.443,0.783,0.738,��,13.1,��
2019/04/24,17:40,0.781,1.141,0.789,1.466,1.066,0.444,0.782,0.739,��,13.5,��
2019/04/24,17:50,0.779,1.144,0.792,1.462,1.066,0.445,0.783,0.737,��,13.1,��
2019/04/24,18:00,0.778,1.143,0.791,1.465,1.065,0.446,0.783,0.737,��,12.5,��
2019/04/24,18:10,0.779,1.141,0.789,1.463,1.065,0.443,0.782,0.738,��,12.5,��
2019/04/24,18:20,0.779,1.141,0.790,1.462,1.066,0.444,0.783,0.738,��,13.5,��
2019/04/24,18:30,0.781,1.142,0.791,1.463,1.065,0.445,0.784,0.738,��,13.6,��
2019/04/24,18:40,0.782,1.142,0.791,1.461,1.069,0.443,0.782,0.736,��,13.6,��
2019/04/24,18:50,0.782,1.142,0.791,1.460,1.065,0.444,0.784,0.738,��,10.6,��
2019/04/24,19:00,0.780,1.142,0.793,1.462,1.066,0.444,0.784,0.737,��,10.3,�L
2019/04/24,19:10,0.782,1.142,0.791,1.464,1.065,0.444,0.782,0.739,��,10.6,��
2019/04/24,19:20,0.782,1.141,0.791,1.460,1.063,0.446,0.781,0.737,��,13.3,��
2019/04/24,19:30,0.782,1.142,0.791,1.463,1.065,0.444,0.781,0.738,��,13.0,��
2019/04/24,19:40,0.780,1.141,0.792,1.459,1.066,0.445,0.782,0.739,��,13.1,��
2019/04/24,19:50,0.782,1.141,0.793,1.464,1.066,0.443,0.783,0.737,��,13.8,��
2019/04/24,20:00,0.780,1.141,0.792,1.461,1.066,0.444,0.783,0.739,��,12.7,��
2019/04/24,20:10,0.780,1.142,0.792,1.463,1.066,0.444,0.783,0.737,��,12.7,��
2019/04/24,20:20,0.782,1.143,0.792,1.462,1.067,0.445,0.782,0.739,��,13.0,��
2019/04/24,20:30,0.779,1.140,0.792,1.462,1.066,0.445,0.783,0.739,��,13.0,�L
2019/04/24,20:40,0.783,1.140,0.792,1.461,1.063,0.443,0.783,0.739,��,12.2,��
2019/04/24,20:50,0.780,1.140,0.791,1.461,1.065,0.444,0.782,0.739,��,13.1,��
2019/04/24,21:00,0.779,1.143,0.792,1.460,1.065,0.444,0.781,0.740,��,12.4,��
2019/04/24,21:10,0.781,1.142,0.791,1.462,1.063,0.444,0.783,0.738,��,13.0,��
2019/04/24,21:20,0.778,1.140,0.791,1.463,1.065,0.445,0.781,0.740,��,12.1,��
2019/04/24,21:30,0.781,1.142,0.792,1.460,1.067,0.446,0.782,0.740,��,11.6,��
2019/04/24,21:40,0.782,1.140,0.789,1.461,1.065,0.445,0.784,0.739,��,10.5,��
2019/04/24,21:50,0.781,1.143,0.792,1.461,1.065,0.444,0.782,0.740,��쓌,11.9,��
2019/04/24,22:00,0.783,1.141,0.791,1.463,1.065,0.445,0.781,0.740,��쓌,11.3,��
2019/04/24,22:10,0.783,1.139,0.791,1.460,1.065,0.445,0.782,0.740,��,8.0,��
2019/04/24,22:20,0.781,1.142,0.789,1.460,1.064,0.446,0.783,0.739,��,8.7,��
2019/04/24,22:30,0.782,1.142,0.790,1.459,1.065,0.445,0.781,0.740,��,8.8,��
2019/04/24,22:40,0.782,1.144,0.792,1.460,1.066,0.445,0.783,0.738,��,8.4,��
2019/04/24,22:50,0.781,1.141,0.789,1.460,1.066,0.444,0.782,0.739,��,10.2,��
2019/04/24,23:00,0.781,1.142,0.790,1.462,1.065,0.445,0.781,0.737,��,10.5,��
2019/04/24,23:10,0.782,1.141,0.792,1.461,1.063,0.444,0.784,0.739,��,9.6,��
2019/04/24,23:20,0.781,1.143,0.793,1.461,1.065,0.445,0.783,0.740,��,10.0,��
2019/04/24,23:30,0.782,1.142,0.790,1.460,1.065,0.446,0.782,0.738,��,11.4,��
2019/04/24,23:40,0.782,1.141,0.791,1.463,1.066,0.445,0.783,0.738,��,11.0,��
2019/04/24,23:50,0.783,1.143,0.790,1.460,1.066,0.446,0.784,0.740,��,9.7,��
